[[{"header":{"parameterUnit":"m.s-1","parameterCategory":1,"la1":30.2991,"la2":30.254,"lo1":-89.0895,"lo2":-89.0444,"dy":0.0017,"dx":0.0017,"nx":28,"ny":28,"refTime":"2025-04-04T03:00:00:Z","depth":0,"parameterNumber":2,"parameterNumberName":"U-component_of_WINDS"},"data":[0,0,0,0,0,0,0,0,0,0,0,0,0,0,0,0,0,0,0,0,0,0,0,0,0,0,0,0,0,0,0,0,0,0,0,0,0,0,0,0,0,0,0,0,0,0,0,0,0,0,0,0,0,0,0,0,0,0,-4.7724,-4.7726,0,-4.7883,-4.7885,-4.7887,-4.7923,-4.7922,-4.7921,-4.7919,-4.808,-4.8085,-4.8091,0,0,0,0,0,0,0,0,0,0,0,0,0,-4.7449,-4.7454,-4.7724,-4.7726,-4.7728,-4.7883,-4.7885,-4.7888,-4.7923,-4.7922,-4.792,-4.7919,-4.8078,-4.8085,-4.8091,0,0,0,0,0,0,0,0,0,0,0,0,0,-4.7584,-4.7456,-4.7724,-4.7765,-4.777,-4.7883,-4.7885,-4.7888,-4.7923,-4.7922,-4.792,-4.7918,-4.8076,-4.8084,-4.8092,-4.8175,0,0,-4.8116,-4.812,0,0,0,0,0,0,0,0,-4.7577,-4.7595,-4.7757,-4.7762,-4.7768,-4.7882,-4.7847,-4.7984,-4.7924,-4.7865,-4.7919,-4.7917,-4.8015,-4.8028,-4.8062,-4.8182,-4.8189,-4.8117,-4.8122,-4.8125,-4.8128,0,0,0,0,0,0,0,-4.7567,-4.7588,-4.7787,-4.7759,-4.7766,-4.7774,-4.7792,-4.7873,-4.7947,-4.787,-4.7873,-4.7891,-4.8018,-4.8054,-4.8066,-4.8192,-4.8117,-4.8124,-4.8129,-4.8132,-4.8388,-4.839,0,0,0,0,0,0,-4.7551,-4.758,-4.7782,-4.7792,-4.7666,-4.7781,-4.78,-4.7847,-4.7947,-4.796,-4.7893,-4.7892,-4.8041,-4.8056,-4.8071,-4.8174,-4.8125,-4.8133,-4.8137,-4.8386,-4.8388,-4.839,0,0,0,0,0,0,-4.7545,-4.7569,-4.7776,-4.7687,-4.7714,-4.7787,-4.7839,-4.7851,-4.7887,-4.7964,-4.7977,-4.7916,-4.804,-4.806,-4.8149,-4.818,-4.8136,-4.8144,-4.8383,-4.8386,-4.8389,-4.838,0,0,0,0,0,0,-4.7537,-4.7566,-4.7599,-4.7687,-4.7718,-4.7851,-4.7841,-4.7855,-4.7901,-4.7902,-4.7989,-4.8002,-4.8041,-4.8137,-4.8157,-4.819,-4.815,-4.8381,-4.8385,-4.8388,-4.8378,-4.8382,-4.8386,0,0,0,0,0,-4.7527,-4.759,-4.76,-4.7625,-4.7761,-4.7853,-4.787,-4.7914,-4.7903,-4.7936,-4.7986,-4.7999,-4.8174,-4.8146,-4.8168,-4.8205,-4.8379,-4.8384,-4.8388,-4.8376,-4.8381,-4.8386,0,0,0,0,0,0,-4.7502,-4.7602,-4.7615,-4.7708,-4.7772,-4.7858,-4.7901,-4.7919,-4.7986,-4.7984,-4.8035,-4.8055,-4.814,-4.8182,-4.8148,-4.829,-4.8276,-4.8285,-4.8259,-4.8265,-4.8269,-4.8256,-4.8157,0,0,0,0,0,-4.7508,-4.7575,-4.7658,-4.7732,-4.7764,-4.7827,-4.7869,-4.7897,-4.7965,-4.7991,-4.8048,-4.8112,-4.8181,-4.8226,-4.8294,-4.8385,-4.8404,-4.8421,-4.8425,-4.8429,-4.8435,-4.8485,-4.8493,-4.8405,-4.8405,-4.8405,0,0,-4.7519,-4.7582,-4.7621,-4.7729,-4.7781,-4.7848,-4.7849,-4.792,-4.797,-4.8002,-4.8089,-4.8132,-4.8208,-4.8297,-4.834,-4.8335,-4.8464,-4.8434,-4.8436,-4.8441,-4.849,-4.8499,-4.8506,-4.8408,-4.8408,-4.8407,0,0,-4.7574,-4.763,-4.7697,-4.775,-4.783,-4.7872,-4.7888,-4.7972,-4.8003,-4.8091,-4.8116,-4.8176,-4.8295,-4.8347,-4.8389,-4.8466,-4.848,-4.8487,-4.8507,-4.8556,-4.8562,-4.8569,-4.8594,-4.8603,-4.8494,-4.8494,-4.8494,0,-4.7578,-4.7681,-4.7729,-4.7799,-4.7845,-4.7878,-4.7946,-4.7995,-4.8093,-4.8123,-4.8117,-4.8267,-4.832,-4.8422,-4.8441,-4.8474,-4.8493,-4.8475,-4.8558,-4.8565,-4.8571,-4.8596,-4.8605,-4.8494,-4.8494,-4.8494,-4.8494,0,-4.7681,-4.7752,-4.7797,-4.7891,-4.7943,-4.8011,-4.8069,-4.8115,-4.814,-4.8182,-4.8271,-4.8337,-4.8418,-4.8445,-4.847,-4.8551,-4.8545,-4.8548,-4.8534,-4.8579,-4.8603,-4.8613,-4.8494,-4.8494,-4.8494,-4.8494,0,0,-4.7723,-4.7843,-4.7859,-4.7901,-4.7993,-4.8048,-4.8118,-4.8199,-4.8237,-4.8304,-4.8363,-4.8463,-4.8467,-4.8515,-4.8546,-4.8588,-4.8642,-4.8586,-4.8588,-4.8592,-4.8734,-4.8729,-4.8739,-4.8654,-4.8656,-4.8657,-4.8726,0,-4.7787,-4.7914,-4.7959,-4.8063,-4.8128,-4.8161,-4.8222,-4.8284,-4.8326,-4.8388,-4.8434,-4.8503,-4.8504,-4.8533,-4.8576,-4.8626,-4.8671,-4.8622,-4.8707,-4.871,-4.8685,-4.8752,-4.8748,-4.881,-4.8736,-4.8738,-4.8739,0,-4.7879,-4.7947,-4.8057,-4.814,-4.8169,-4.8223,-4.83,-4.8359,-4.843,-4.8458,-4.8512,-4.854,-4.8614,-4.8598,-4.87,-4.8666,-4.8704,-4.8734,-4.8738,-4.8745,-4.8725,-4.8759,-4.8831,-4.8839,-4.8755,-4.8754,-4.8753,0,-4.7895,-4.8015,-4.8096,-4.8132,-4.8232,-4.8268,-4.8311,-4.8381,-4.8427,-4.8494,-4.8524,-4.86,-4.864,-4.8698,-4.8746,-4.873,-4.8843,-4.8831,-4.8866,-4.8865,-4.8886,-4.8884,-4.8962,-4.8915,-4.8915,-4.8914,-4.8914,0,-4.7961,-4.8027,-4.8105,-4.8155,-4.8229,-4.8281,-4.8353,-4.8398,-4.846,-4.8518,-4.8552,-4.8606,-4.8667,-4.8729,-4.8767,-4.8845,-4.8864,-4.8887,-4.8896,-4.8883,-4.8879,-4.8906,-4.8902,-4.8917,-4.8916,-4.8916,-4.8915,0,-4.7991,-4.8047,-4.8137,-4.8224,-4.8247,-4.8298,-4.8372,-4.8421,-4.8465,-4.8539,-4.8559,-4.8628,-4.8702,-4.8756,-4.8853,-4.8878,-4.8961,-4.8971,-4.8937,-4.8941,-4.8972,-4.8967,-4.9068,-4.9084,-4.9027,-4.9028,-4.9028,0,-4.8028,-4.8079,-4.8172,-4.8214,-4.8257,-4.8324,-4.8371,-4.8424,-4.8471,-4.8556,-4.8595,-4.8672,-4.8736,-4.8854,-4.8912,-4.8986,-4.8996,-4.9027,-4.9008,-4.8992,-4.8994,-4.899,-4.8994,-4.9029,-4.9029,-4.9029,-4.903,0,-4.8088,-4.8113,-4.8179,-4.8255,-4.831,-4.8372,-4.8435,-4.8467,-4.8532,-4.8583,-4.866,-4.871,-4.8809,-4.8884,-4.8964,-4.9008,-4.9029,-4.9036,-4.9047,-4.9033,-4.901,-4.9021,-4.8942,-4.9032,-4.9032,-4.9032,-4.9032,-4.9032,-4.8121,-4.8168,-4.824,-4.8313,-4.8366,-4.8424,-4.8474,-4.8524,-4.859,-4.8674,-4.8702,-4.8781,-4.8851,-4.896,-4.9005,-4.9068,-4.9066,-4.9084,-4.9088,-4.9091,-4.9089,-4.9002,-4.9083,-4.9083,-4.9083,-4.9083,-4.9083,0,-4.818,-4.8229,-4.8295,-4.8382,-4.8439,-4.8456,-4.8526,-4.8572,-4.8642,-4.8706,-4.8769,-4.8856,-4.893,-4.8995,-4.9071,-4.9109,-4.912,-4.9127,-4.9123,-4.9133,-4.9086,-4.9068,-4.9116,-4.9116,-4.9116,-4.9116,-4.9116,-4.9116,-4.8218,-4.8297,-4.8331,-4.8437,-4.8485,-4.8563,-4.8601,-4.8655,-4.8706,-4.8803,-4.8864,-4.8906,-4.897,-4.9052,-4.912,-4.9137,-4.9163,-4.9166,-4.9185,-4.914,-4.9136,-4.9132,-4.9115,-4.9172,-4.9172,-4.9226,-4.9227,-4.9227]},{"header":{"parameterUnit":"m.s-1","parameterCategory":1,"la1":30.2991,"la2":30.254,"lo1":-89.0895,"lo2":-89.0444,"dy":0.0017,"dx":0.0017,"nx":28,"ny":28,"refTime":"2025-04-04T03:00:00:Z","depth":0,"parameterNumber":3,"parameterNumberName":"V-component_of_WINDS"},"data":[0,0,0,0,0,0,0,0,0,0,0,0,0,0,0,0,0,0,0,0,0,0,0,0,0,0,0,0,0,0,0,0,0,0,0,0,0,0,0,0,0,0,0,0,0,0,0,0,0,0,0,0,0,0,0,0,0,0,5.1866,5.1867,0,5.1964,5.1966,5.1967,5.1967,5.1966,5.1965,5.1964,5.2061,5.2064,5.2068,0,0,0,0,0,0,0,0,0,0,0,0,0,5.1678,5.1681,5.1866,5.1867,5.1869,5.1964,5.1966,5.1967,5.1968,5.1966,5.1965,5.1963,5.206,5.2064,5.2069,0,0,0,0,0,0,0,0,0,0,0,0,0,5.1766,5.1682,5.1866,5.1881,5.1883,5.1964,5.1966,5.1967,5.1968,5.1966,5.1964,5.1962,5.2058,5.2064,5.2069,5.2141,0,0,5.2086,5.2089,0,0,0,0,0,0,0,0,5.1761,5.1773,5.1877,5.188,5.1883,5.1952,5.1935,5.2025,5.1968,5.1936,5.1964,5.1962,5.2026,5.2034,5.2056,5.2146,5.215,5.2087,5.209,5.2093,5.2094,0,0,0,0,0,0,0,5.1755,5.1769,5.1905,5.1879,5.1882,5.1882,5.1892,5.1952,5.199,5.1938,5.1939,5.195,5.2027,5.2051,5.2059,5.2151,5.2087,5.2092,5.2095,5.2097,5.2307,5.2309,0,0,0,0,0,0,5.1746,5.1764,5.1902,5.1908,5.1816,5.1887,5.1898,5.1931,5.1989,5.1996,5.1952,5.195,5.2042,5.2052,5.2062,5.2152,5.2093,5.2098,5.2101,5.2304,5.2307,5.2309,0,0,0,0,0,0,5.1742,5.1758,5.1898,5.1836,5.1854,5.1892,5.1929,5.1934,5.1958,5.2,5.2006,5.197,5.2041,5.2054,5.2122,5.2155,5.21,5.2105,5.2302,5.2305,5.2308,5.2331,0,0,0,0,0,0,5.1737,5.1757,5.1785,5.1837,5.1857,5.1957,5.1931,5.1938,5.1969,5.1967,5.2018,5.2025,5.2041,5.2114,5.2128,5.2162,5.211,5.2299,5.2303,5.2307,5.2327,5.2334,5.234,0,0,0,0,0,5.173,5.1786,5.1786,5.1803,5.1893,5.1959,5.197,5.1989,5.1971,5.2,5.2026,5.2023,5.2149,5.2121,5.2136,5.2173,5.2297,5.2302,5.2307,5.2324,5.2333,5.234,0,0,0,0,0,0,5.1736,5.1793,5.1794,5.1869,5.1909,5.1959,5.1995,5.1997,5.2042,5.2039,5.2059,5.207,5.2139,5.2162,5.213,5.2246,5.2221,5.2229,5.2229,5.2237,5.2244,5.2237,5.2114,0,0,0,0,0,5.1746,5.1796,5.1843,5.1904,5.1925,5.1957,5.1986,5.1997,5.2039,5.2056,5.2087,5.2127,5.2176,5.2208,5.2255,5.233,5.2342,5.2363,5.237,5.2375,5.2382,5.2426,5.2436,5.2326,5.2326,5.2325,0,0,5.1767,5.1805,5.1834,5.1906,5.1939,5.199,5.1971,5.2024,5.2062,5.2063,5.213,5.2155,5.2201,5.2274,5.2307,5.2296,5.2415,5.2381,5.2385,5.239,5.2432,5.2442,5.2451,5.2329,5.2328,5.2328,0,0,5.1832,5.1865,5.1921,5.1955,5.2005,5.2026,5.204,5.209,5.2107,5.2174,5.2177,5.2222,5.2305,5.2339,5.2366,5.2446,5.2445,5.2461,5.2496,5.2538,5.2546,5.2554,5.2584,5.2594,5.2468,5.2468,5.2468,0,5.1852,5.1929,5.1949,5.2004,5.2036,5.2041,5.2098,5.2129,5.2192,5.2213,5.22,5.2306,5.2337,5.2419,5.2439,5.246,5.2477,5.2455,5.2544,5.2552,5.2559,5.2588,5.2599,5.2469,5.2469,5.2469,5.2469,0,5.1952,5.2005,5.2044,5.2107,5.2143,5.2198,5.2227,5.2261,5.2269,5.2292,5.2361,5.2399,5.2455,5.2475,5.2482,5.2558,5.255,5.254,5.2514,5.2571,5.2599,5.261,5.2472,5.2471,5.2471,5.247,0,0,5.2023,5.2097,5.2111,5.214,5.2197,5.2238,5.2294,5.235,5.238,5.2423,5.2471,5.2542,5.2534,5.2566,5.2577,5.2614,5.2677,5.26,5.2601,5.2614,5.2764,5.2772,5.2785,5.2677,5.2679,5.2681,5.2761,0,5.2095,5.2196,5.2216,5.2304,5.2354,5.236,5.2409,5.2449,5.2472,5.2518,5.2542,5.2593,5.2578,5.2598,5.2634,5.2662,5.2708,5.2656,5.2722,5.2724,5.2711,5.2799,5.2807,5.2881,5.2772,5.2773,5.2775,0,5.2192,5.224,5.2333,5.2385,5.2407,5.2451,5.2505,5.2548,5.2594,5.2608,5.2644,5.2652,5.2711,5.2683,5.2764,5.2729,5.2757,5.2774,5.2778,5.2785,5.2753,5.281,5.2905,5.2917,5.2791,5.279,5.2789,0,5.2237,5.2324,5.2392,5.2416,5.2478,5.2509,5.2535,5.2579,5.2612,5.2659,5.2681,5.2733,5.2762,5.2803,5.2825,5.2802,5.2905,5.2878,5.2919,5.2918,5.294,5.2939,5.3043,5.2957,5.2957,5.2956,5.2956,0,5.2316,5.2373,5.2413,5.2454,5.2519,5.2541,5.2604,5.263,5.267,5.2716,5.2724,5.2767,5.2793,5.2841,5.2858,5.2924,5.2936,5.2949,5.2954,5.295,5.2948,5.2969,5.2965,5.2959,5.2959,5.2958,5.2958,0,5.2377,5.2405,5.248,5.2533,5.2547,5.2593,5.2638,5.2678,5.2701,5.2761,5.2776,5.2812,5.2869,5.2895,5.2963,5.2975,5.305,5.305,5.3036,5.3037,5.3077,5.3073,5.3198,5.3217,5.3117,5.3118,5.3119,0,5.2426,5.247,5.2529,5.2561,5.259,5.2641,5.2676,5.27,5.2735,5.2792,5.2826,5.2883,5.2929,5.3019,5.3051,5.3105,5.3107,5.3147,5.3114,5.311,5.3109,5.3107,5.3112,5.3153,5.3154,5.3154,5.3155,0,5.2511,5.2523,5.2573,5.2629,5.267,5.2715,5.2758,5.2784,5.2815,5.2854,5.2913,5.295,5.3021,5.3078,5.3134,5.3161,5.3164,5.3165,5.3178,5.3174,5.3165,5.3172,5.3053,5.3162,5.3161,5.3161,5.3161,5.316,5.2568,5.2609,5.2657,5.2713,5.2748,5.2789,5.2831,5.286,5.291,5.2971,5.2982,5.3044,5.309,5.3165,5.3195,5.3244,5.3234,5.3252,5.3256,5.3261,5.3264,5.3156,5.3254,5.3253,5.3253,5.3253,5.3253,0,5.2655,5.2687,5.2738,5.28,5.2844,5.2844,5.2892,5.2929,5.2984,5.3027,5.3074,5.3142,5.3197,5.3234,5.329,5.3323,5.3326,5.3337,5.3335,5.3342,5.3268,5.3253,5.3334,5.3334,5.3334,5.3334,5.3334,5.3334,5.2705,5.2775,5.2793,5.288,5.2911,5.2974,5.3002,5.304,5.3074,5.315,5.3197,5.3221,5.3262,5.3322,5.3373,5.3382,5.3403,5.3415,5.3424,5.3355,5.3347,5.3339,5.3324,5.3419,5.3419,5.3494,5.3494,5.3495]}]]